N256CH KSNA-KSNA

Flight info

Callsign N256CH
Flight time 0h 2m
Altitude 7000
Route SLI
Aircraft C750/M-VGDW/C

Departure

Time 2026-05-06 01:51
Airport John Wayne Orange County International Airport (KSNA)

Arrival

Time 2026-05-06 01:53
Airport John Wayne Orange County International Airport (KSNA)
Time Latitude Longitude Altitude Speed Heading
2026-05-06 01:51 33.76183 -117.81398 1830 ft 193 kts 208°
2026-05-06 01:51 33.75019 -117.82135 1577 ft 184 kts 208°
2026-05-06 01:51 33.73937 -117.82829 1339 ft 168 kts 209°
2026-05-06 01:51 33.72941 -117.83465 1118 ft 157 kts 209°
2026-05-06 01:52 33.71993 -117.84069 927 ft 151 kts 209°
2026-05-06 01:52 33.71080 -117.84677 753 ft 149 kts 210°
2026-05-06 01:52 33.70165 -117.85263 557 ft 149 kts 208°
2026-05-06 01:52 33.69281 -117.85809 352 ft 137 kts 209°
2026-05-06 01:53 33.68460 -117.86321 163 ft 130 kts 208°
2026-05-06 01:53 33.67684 -117.86812 59 ft 119 kts 209°
2026-05-06 01:53 33.67128 -117.87162 56 ft 40 kts 208°
2026-05-06 01:53 33.66954 -117.87204 61 ft 19 kts 146°
2026-05-06 01:54 33.66924 -117.87169 61 ft 0 kts 128°
2026-05-06 01:54 33.66913 -117.87151 60 ft 7 kts 120°
2026-05-06 01:55 33.66928 -117.87080 58 ft 11 kts 37°
2026-05-06 01:55 33.66992 -117.87013 52 ft 13 kts 39°
2026-05-06 01:55 33.67059 -117.86946 56 ft 12 kts 39°
2026-05-06 01:55 33.67117 -117.86885 57 ft 11 kts 37°
2026-05-06 01:56 33.67178 -117.86836 57 ft 11 kts 25°
2026-05-06 01:56 33.67243 -117.86787 58 ft 11 kts 69°
2026-05-06 01:56 33.67223 -117.86696 55 ft 10 kts 77°
2026-05-06 01:56 33.67230 -117.86640 57 ft 5 kts 90°
2026-05-06 01:57 33.67215 -117.86621 54 ft 0 kts 168°